Погода в Белозерском

Россия / Курганская область     55°49′13″N   65°34′38″E
темп.,
°C
ветер,
м/с
пор.,
м/с
влажн.,
%
обл.,
%
осадки,
мм/ч
давл.,
гПа
погр.,
м
4 марта, чт
чт423:00−6ююз4996100 0.0 1002208
02:00−5ююз4996100 0.1 1000261
05:00−5ююз489698 0.2 1000201
08:00−7ююз379790 0.1 998130
11:00−4юз369495 0.1 998339
14:00−2юз3689100 0.0 997577
17:00−3зюз488994 0.1 998580
20:00−7зюз5118697 0.1 999275
5 марта, пт
пт523:00−10зюз498878 0.1 1001165
02:00−12ююз49910 0.0 1001145
05:00−9ююз6149149 0.0 1000477
08:00−6юз91594100 0.7 998768
11:00−1юз91583100 1.3 9971052
14:00+1зюз71282100 0.0 9981191
17:000юз61285100 0.1 1000766
20:00−1юз41093100 0.4 1001443
6 марта, сб
сб623:00−3зюз4885100 0.5 1002166
02:00−5з4987100 0.0 1003350
05:00−10з4118899 0.0 1005284
08:00−14з511900 0.0 1008259
11:00−10з59840 0.0 1010393
14:00−6зюз58790 0.0 1010732
17:00−8зюз37870 0.0 1011182
20:00−12юз45920 0.0 101173
7 марта, вс
вс723:00−15ююз449212 0.0 101178
02:00−15ююз338799 0.0 100945
05:00−13ююв128699 0.0 100821
08:00−12всв2295100 0.1 100689
11:00−10ссв3393100 0.3 1005212
14:00−8с349299 0.1 1006263
17:00−8ссз129197 0.2 100740
20:00−10сз229698 0.1 100935
8 марта, пн
пн823:00−14сз369395 0.2 1011101
02:00−18зсз339449 0.0 101124
05:00−20з229724 0.0 101320
08:00−21зюз22960 0.0 101420
11:00−15ююз35920 0.0 1013255
14:00−12ю588798 0.0 1012414
17:00−10ююз7139299 0.1 1010776
20:00−9ююз71393100 0.4 1010725